User: anonymous   Login
Location: Unspecified
(0.0000°N, 0.0000°E)
Time: 10:55:59
(UTC+00:00)
Language:

NAVSTAR 65 (USA 213) - Orbit

View from above orbital plane
View from above orbital plane
View from above satellite
View from above satellite

Ground track
Ground track

The orbit data is extracted from the following two-line orbital elements,

1 36585U 10022A   17016.57976380 -.00000081  00000-0  00000+0 0  9991
2 36585  56.0295 346.6336 0058312  41.2714 189.8859  2.00567243 48611
Epoch (UTC): 16 January 2017 13:54:51
Eccentricity: 0.0058312
inclination: 56.0295°
perigee height: 20027 km
apogee height: 20336 km
right ascension of ascending node: 346.6336°
argument of perigee: 41.2714°
revolutions per day: 2.00567243
mean anomaly at epoch: 189.8859°
orbit number at epoch: 4861

The dashed part of the orbit path shows where the satellite is in the earth's shadow,  

DLR